| time (UTC) | temp F | wind direction | speed MPH | gust MPH | rain 1hr in | rain 24hr in | rain mn in | humidity % | barometer mb |
| 20260507003517 | 58 | 0.0 | 2.0 | 0.00 | 0.00 | 0.00 | 100 | 1020.4 | |
| 20260507002517 | 58 | 315 | 1.0 | 4.0 | 0.00 | 0.00 | 0.00 | 100 | 1020.6 |
| 20260507001537 | 58 | 0 | 1.0 | 3.0 | 0.00 | 0.00 | 0.00 | 100 | 1020.5 |
| 20260507000517 | 58 | 315 | 1.0 | 4.0 | 0.00 | 0.00 | 0.00 | 100 | 1020.6 |
| 20260506235517 | 58 | 0.0 | 2.0 | 0.00 | 0.00 | 0.00 | 100 | 1020.6 | |
| 20260506234517 | 58 | 135 | 1.0 | 5.0 | 0.00 | 0.00 | 0.00 | 100 | 1020.8 |
| 20260506233517 | 58 | 0.0 | 1.0 | 0.00 | 0.00 | 0.00 | 100 | 1020.8 | |
| 20260506232557 | 58 | 0.0 | 3.0 | 0.00 | 0.00 | 0.00 | 100 | 1020.9 | |
| 20260506231516 | 59 | 0.0 | 3.0 | 0.00 | 0.00 | 0.00 | 100 | 1020.9 | |
| 20260506230517 | 59 | 293 | 1.0 | 7.0 | 0.00 | 0.00 | 0.00 | 100 | 1020.8 |
| 20260506225537 | 59 | 0.0 | 3.0 | 0.00 | 0.00 | 0.00 | 100 | 1020.8 | |
| 20260506224516 | 59 | 0.0 | 2.0 | 0.00 | 0.00 | 0.00 | 100 | 1020.8 | |
| 20260506223516 | 59 | 0.0 | 2.0 | 0.00 | 0.00 | 0.00 | 100 | 1020.9 | |
| 20260506222537 | 59 | 135 | 1.0 | 4.0 | 0.00 | 0.00 | 0.00 | 100 | 1020.9 |
| 20260506221516 | 58 | 158 | 1.0 | 3.0 | 0.00 | 0.00 | 0.00 | 100 | 1020.8 |
| 20260506220516 | 58 | 248 | 1.0 | 5.0 | 0.00 | 0.00 | 0.00 | 100 | 1020.9 |
| 20260506215516 | 58 | 338 | 1.0 | 3.0 | 0.00 | 0.00 | 0.00 | 100 | 1020.9 |
| 20260506214517 | 58 | 0.0 | 2.0 | 0.00 | 0.00 | 0.00 | 100 | 1021.0 | |
| 20260506213516 | 58 | 135 | 1.0 | 3.0 | 0.00 | 0.00 | 0.00 | 100 | 1021.0 |
| 20260506212516 | 58 | 0.0 | 4.0 | 0.00 | 0.00 | 0.00 | 100 | 1021.0 | |
| 20260506211516 | 58 | 23 | 1.0 | 5.0 | 0.00 | 0.00 | 0.00 | 100 | 1021.0 |
| 20260506210517 | 58 | 0.0 | 3.0 | 0.00 | 0.00 | 0.00 | 100 | 1020.9 | |
| 20260506205516 | 58 | 315 | 1.0 | 4.0 | 0.00 | 0.00 | 0.00 | 100 | 1020.9 |
| 20260506204516 | 58 | 248 | 1.0 | 4.0 | 0.00 | 0.00 | 0.00 | 100 | 1020.9 |
| 20260506203516 | 58 | 270 | 1.0 | 5.0 | 0.00 | 0.00 | 0.00 | 100 | 1020.8 |
| 20260506202516 | 58 | 293 | 1.0 | 6.0 | 0.00 | 0.00 | 0.00 | 100 | 1020.8 |
| 20260506201516 | 58 | 158 | 1.0 | 4.0 | 0.00 | 0.00 | 0.00 | 100 | 1020.8 |
| 20260506200516 | 58 | 293 | 1.0 | 3.0 | 0.00 | 0.00 | 0.00 | 100 | 1020.7 |
| 20260506195516 | 58 | 0.0 | 3.0 | 0.00 | 0.00 | 0.00 | 100 | 1020.6 | |
| 20260506194516 | 58 | 135 | 1.0 | 6.0 | 0.00 | 0.00 | 0.00 | 100 | 1020.7 |
| 20260506193536 | 58 | 0.0 | 2.0 | 0.00 | 0.00 | 0.00 | 100 | 1020.6 | |
| 20260506192516 | 58 | 293 | 1.0 | 6.0 | 0.00 | 0.00 | 0.00 | 100 | 1020.6 |
| 20260506191516 | 58 | 45 | 1.0 | 4.0 | 0.00 | 0.00 | 0.00 | 100 | 1020.5 |
| 20260506190516 | 58 | 338 | 1.0 | 2.0 | 0.00 | 0.00 | 0.00 | 100 | 1020.4 |
| 20260506185516 | 58 | 158 | 1.0 | 5.0 | 0.00 | 0.00 | 0.00 | 100 | 1020.5 |
| 20260506184516 | 58 | 338 | 1.0 | 3.0 | 0.00 | 0.00 | 0.00 | 100 | 1020.5 |
| 20260506183516 | 58 | 293 | 2.0 | 6.0 | 0.00 | 0.00 | 0.00 | 100 | 1020.5 |
| 20260506182516 | 58 | 338 | 1.0 | 4.0 | 0.00 | 0.00 | 0.00 | 100 | 1020.5 |
| 20260506181536 | 58 | 158 | 1.0 | 4.0 | 0.00 | 0.00 | 0.00 | 100 | 1020.5 |
| 20260506180516 | 58 | 293 | 2.0 | 4.0 | 0.00 | 0.00 | 0.00 | 100 | 1020.2 |
| 20260506175516 | 58 | 315 | 1.0 | 4.0 | 0.00 | 0.00 | 0.00 | 100 | 1020.0 |
| 20260506174536 | 57 | 338 | 1.0 | 3.0 | 0.00 | 0.00 | 0.00 | 100 | 1020.2 |
| 20260506173515 | 57 | 0.0 | 3.0 | 0.00 | 0.00 | 0.00 | 100 | 1020.1 | |
| 20260506172536 | 57 | 0.0 | 3.0 | 0.00 | 0.00 | 0.00 | 100 | 1020.1 | |
| 20260506171515 | 57 | 225 | 1.0 | 3.0 | 0.00 | 0.00 | 0.00 | 100 | 1020.2 |
| 20260506170516 | 56 | 0.0 | 2.0 | 0.00 | 0.00 | 0.00 | 100 | 1020.3 | |
| 20260506165515 | 56 | 0.0 | 1.0 | 0.00 | 0.00 | 0.00 | 100 | 1020.4 | |
| 20260506164516 | 56 | 158 | 1.0 | 4.0 | 0.00 | 0.00 | 0.00 | 100 | 1020.4 |
| 20260506163536 | 56 | 0.0 | 2.0 | 0.00 | 0.00 | 0.00 | 100 | 1020.3 | |
| 20260506162536 | 56 | 0.0 | 1.0 | 0.00 | 0.00 | 0.00 | 100 | 1020.0 | |
| 20260506161516 | 55 | 0.0 | 3.0 | 0.00 | 0.00 | 0.00 | 100 | 1020.1 | |
| 20260506160516 | 55 | 0.0 | 2.0 | 0.00 | 0.00 | 0.00 | 100 | 1019.9 | |
| 20260506155516 | 55 | 0.0 | 0.0 | 0.00 | 0.00 | 0.00 | 100 | 1019.9 | |
| 20260506154515 | 55 | 0.0 | 2.0 | 0.00 | 0.00 | 0.00 | 100 | 1019.8 | |
| 20260506153516 | 55 | 0.0 | 2.0 | 0.00 | 0.00 | 0.00 | 100 | 1020.0 | |
| 20260506152515 | 55 | 0.0 | 4.0 | 0.00 | 0.00 | 0.00 | 100 | 1020.0 | |
| 20260506151516 | 54 | 0.0 | 1.0 | 0.00 | 0.00 | 0.00 | 100 | 1019.9 | |
| 20260506150515 | 54 | 0.0 | 2.0 | 0.00 | 0.00 | 0.00 | 100 | 1019.9 | |
| 20260506145515 | 54 | 158 | 1.0 | 3.0 | 0.00 | 0.00 | 0.00 | 100 | 1019.9 |
| 20260506144515 | 54 | 338 | 1.0 | 4.0 | 0.00 | 0.00 | 0.00 | 100 | 1019.8 |
| 20260506143515 | 54 | 0.0 | 3.0 | 0.00 | 0.00 | 0.00 | 100 | 1019.8 | |
| 20260506142515 | 54 | 0.0 | 2.0 | 0.00 | 0.00 | 0.00 | 100 | 1019.8 | |
| 20260506141535 | 53 | 0.0 | 1.0 | 0.00 | 0.00 | 0.00 | 100 | 1019.4 | |
| 20260506140537 | 53 | 0.0 | 0.0 | 0.00 | 0.00 | 0.00 | 100 | 1019.6 | |
| 20260506135517 | 53 | 0.0 | 2.0 | 0.00 | 0.00 | 0.00 | 100 | 1019.5 | |
| 20260506134517 | 53 | 0.0 | 0.0 | 0.00 | 0.00 | 0.00 | 100 | 1019.5 | |
| 20260506133517 | 53 | 0.0 | 0.0 | 0.00 | 0.00 | 0.00 | 100 | 1019.4 | |
| 20260506132517 | 53 | 0.0 | 1.0 | 0.00 | 0.00 | 0.00 | 100 | 1019.5 | |
| 20260506131517 | 53 | 0.0 | 1.0 | 0.00 | 0.00 | 0.00 | 100 | 1019.5 | |
| 20260506130517 | 53 | 0.0 | 1.0 | 0.00 | 0.00 | 0.00 | 100 | 1019.4 | |
| 20260506125537 | 53 | 0.0 | 0.0 | 0.00 | 0.00 | 0.00 | 100 | 1019.1 | |
| 20260506124517 | 53 | 0.0 | 0.0 | 0.00 | 0.00 | 0.00 | 100 | 1019.1 | |
| 20260506123517 | 53 | 0.0 | 0.0 | 0.00 | 0.00 | 0.00 | 100 | 1019.1 | |
| 20260506122517 | 53 | 0.0 | 1.0 | 0.00 | 0.00 | 0.00 | 100 | 1019.1 | |
| 20260506121517 | 54 | 0.0 | 1.0 | 0.00 | 0.00 | 0.00 | 100 | 1019.0 | |
| 20260506120537 | 54 | 0.0 | 1.0 | 0.00 | 0.00 | 0.00 | 100 | 1019.0 | |
| 20260506115517 | 54 | 0.0 | 0.0 | 0.00 | 0.00 | 0.00 | 100 | 1018.8 | |
| 20260506114517 | 54 | 0.0 | 0.0 | 0.00 | 0.00 | 0.00 | 100 | 1018.8 | |
| 20260506113517 | 54 | 0.0 | 1.0 | 0.00 | 0.00 | 0.00 | 100 | 1018.7 | |
| 20260506112537 | 54 | 0.0 | 1.0 | 0.00 | 0.00 | 0.00 | 100 | 1018.6 | |
| 20260506111537 | 54 | 0.0 | 2.0 | 0.00 | 0.00 | 0.00 | 100 | 1018.7 | |
| 20260506110537 | 54 | 0.0 | 1.0 | 0.00 | 0.00 | 0.00 | 100 | 1018.6 | |
| 20260506105517 | 54 | 0.0 | 0.0 | 0.00 | 0.00 | 0.00 | 100 | 1018.6 | |
| 20260506104517 | 54 | 0.0 | 0.0 | 0.00 | 0.00 | 0.00 | 100 | 1018.5 | |
| 20260506103517 | 54 | 0.0 | 1.0 | 0.00 | 0.00 | 0.00 | 100 | 1018.3 | |
| 20260506102517 | 54 | 0.0 | 1.0 | 0.00 | 0.00 | 0.00 | 100 | 1018.4 | |
| 20260506101517 | 54 | 0.0 | 0.0 | 0.00 | 0.00 | 0.00 | 100 | 1018.3 | |
| 20260506100516 | 54 | 0.0 | 0.0 | 0.00 | 0.00 | 0.00 | 100 | 1018.2 | |
| 20260506095516 | 54 | 0.0 | 0.0 | 0.00 | 0.00 | 0.00 | 100 | 1018.0 | |
| 20260506094537 | 54 | 0.0 | 0.0 | 0.00 | 0.00 | 0.00 | 100 | 1017.9 | |
| 20260506093517 | 54 | 0.0 | 0.0 | 0.00 | 0.00 | 0.00 | 100 | 1017.9 | |
| 20260506092516 | 54 | 0.0 | 0.0 | 0.00 | 0.00 | 0.00 | 100 | 1017.9 | |
| 20260506091516 | 54 | 0.0 | 0.0 | 0.00 | 0.00 | 0.00 | 100 | 1017.9 | |
| 20260506090516 | 53 | 0.0 | 0.0 | 0.00 | 0.00 | 0.00 | 100 | 1017.8 | |
| 20260506085516 | 53 | 0.0 | 0.0 | 0.00 | 0.00 | 0.00 | 100 | 1017.9 | |
| 20260506084516 | 53 | 0.0 | 0.0 | 0.00 | 0.00 | 0.00 | 100 | 1017.7 | |
| 20260506083516 | 53 | 0.0 | 0.0 | 0.00 | 0.00 | 0.00 | 100 | 1017.6 | |
| 20260506082516 | 53 | 0.0 | 0.0 | 0.00 | 0.00 | 0.00 | 100 | 1017.6 | |
| 20260506081536 | 52 | 0.0 | 0.0 | 0.00 | 0.00 | 0.00 | 100 | 1017.5 | |
| 20260506080516 | 52 | 0.0 | 0.0 | 0.00 | 0.00 | 0.00 | 100 | 1017.4 | |
| 20260506072516 | 53 | 0.0 | 0.0 | 0.00 | 0.00 | 0.00 | 100 | 1017.3 | |
| 20260506071536 | 53 | 0.0 | 0.0 | 0.00 | 0.00 | 0.00 | 100 | 1017.1 | |
| 20260506070536 | 54 | 0.0 | 1.0 | 0.00 | 0.00 | 0.00 | 100 | 1017.1 | |
| 20260506062517 | 54 | 248 | 1.0 | 6.0 | 0.00 | 0.00 | 0.00 | 100 | 1016.7 |
| 20260506061517 | 55 | 0.0 | 1.0 | 0.00 | 0.00 | 0.00 | 100 | 1016.6 | |
| 20260506060617 | 55 | 0.0 | 1.0 | 0.00 | 0.00 | 0.00 | 100 | 1016.5 | |
| 20260506050516 | 57 | 0.0 | 0.0 | 0.00 | 0.00 | 0.00 | 100 | 1016.1 | |
| 20260506044516 | 57 | 0.0 | 1.0 | 0.00 | 0.00 | 0.00 | 100 | 1016.2 | |
| 20260506043536 | 58 | 0.0 | 1.0 | 0.00 | 0.00 | 0.00 | 100 | 1016.1 | |
| 20260506042516 | 58 | 0.0 | 0.0 | 0.00 | 0.00 | 0.00 | 100 | 1016.0 | |
| 20260506041536 | 58 | 0.0 | 1.0 | 0.00 | 0.00 | 0.00 | 100 | 1015.9 | |
| 20260506040515 | 59 | 0.0 | 1.0 | 0.00 | 0.00 | 0.00 | 100 | 1015.8 | |
| 20260506035536 | 59 | 0.0 | 0.0 | 0.00 | 0.00 | 0.00 | 100 | 1015.8 | |
| 20260506034516 | 60 | 0.0 | 1.0 | 0.00 | 0.00 | 0.00 | 100 | 1015.6 | |
| 20260506033515 | 60 | 0.0 | 0.0 | 0.00 | 0.00 | 0.00 | 100 | 1015.5 | |
| 20260506032536 | 61 | 0.0 | 0.0 | 0.00 | 0.00 | 0.00 | 100 | 1015.4 | |
| 20260506031516 | 62 | 0.0 | 2.0 | 0.00 | 0.00 | 0.00 | 100 | 1015.2 | |
| 20260506030516 | 62 | 0.0 | 0.0 | 0.00 | 0.00 | 0.00 | 100 | 1015.3 | |
| 20260506025515 | 63 | 0.0 | 2.0 | 0.00 | 0.00 | 0.00 | 100 | 1015.0 | |
| 20260506024515 | 63 | 90 | 1.0 | 3.0 | 0.00 | 0.00 | 0.00 | 100 | 1015.1 |
| 20260506023516 | 64 | 0.0 | 2.0 | 0.00 | 0.00 | 0.00 | 100 | 1015.0 | |
| 20260506022516 | 64 | 0.0 | 1.0 | 0.00 | 0.00 | 0.00 | 100 | 1014.9 | |
| 20260506021536 | 65 | 0.0 | 1.0 | 0.00 | 0.00 | 0.00 | 100 | 1014.9 | |
| 20260506020516 | 65 | 0.0 | 3.0 | 0.00 | 0.00 | 0.00 | 100 | 1015.0 | |
| 20260506015516 | 65 | 0.0 | 1.0 | 0.00 | 0.00 | 0.00 | 100 | 1015.0 | |
| 20260506014516 | 65 | 0.0 | 3.0 | 0.00 | 0.00 | 0.00 | 100 | 1015.0 | |
| 20260506013536 | 65 | 0.0 | 2.0 | 0.00 | 0.00 | 0.00 | 100 | 1015.0 | |
| 20260506012515 | 66 | 0.0 | 2.0 | 0.00 | 0.00 | 0.00 | 100 | 1015.0 | |
| 20260506011515 | 66 | 0.0 | 1.0 | 0.00 | 0.00 | 0.00 | 100 | 1015.1 | |
| 20260506010515 | 68 | 0.0 | 3.0 | 0.00 | 0.00 | 0.00 | 100 | 1015.1 | |
| 20260506005515 | 68 | 0.0 | 2.0 | 0.00 | 0.00 | 0.00 | 100 | 1015.1 | |
| 20260506004515 | 68 | 0.0 | 2.0 | 0.00 | 0.00 | 0.00 | 100 | 1015.1 |